KC5AYO Weather Reports


Display with metric or nautical units.
time (UTC)temp
F
wind
direction
speed
MPH
gust
MPH
rain 1hr
in
rain 24hr
in
rain mn
in
humidity
%
barometer
mb
20260507115509 41 266 0.0 0.0 0.00 0.00 0.00 87 1015.9
20260507115008 40 266 0.0 0.0 0.00 0.00 0.00 88 1016.0
20260507114509 40 266 0.0 0.0 0.00 0.00 0.00 87 1015.7
20260507114012 39 266 0.0 0.0 0.00 0.00 0.00 86 1015.7
20260507113508 39 266 0.0 0.0 0.00 0.00 0.00 87 1015.7
20260507113007 39 266 0.0 0.0 0.00 0.00 0.00 87 1015.8
20260507112510 39 266 0.0 0.0 0.00 0.00 0.00 86 1015.8
20260507112007 38 266 0.0 0.0 0.00 0.00 0.00 86 1015.8
20260507111507 38 266 0.0 0.0 0.00 0.00 0.00 86 1015.8
20260507111004 38 266 0.0 0.0 0.00 0.00 0.00 86 1015.7
20260507110504 38 269 0.0 0.0 0.00 0.00 0.00 86 1015.7
20260507110003 39 335 0.0 0.0 0.00 0.00 0.00 86 1015.6
20260507105501 39 335 0.0 0.0 0.00 0.00 0.00 85 1015.6
20260507105002 39 335 0.0 0.0 0.00 0.00 0.00 86 1015.7
20260507104501 40 335 0.0 0.0 0.00 0.00 0.00 87 1015.7
20260507104100 40 335 0.0 0.0 0.00 0.00 0.00 87 1015.7
20260507103601 39 335 0.0 0.0 0.00 0.00 0.00 86 1015.7
20260507103059 39 335 0.0 0.0 0.00 0.00 0.00 84 1015.7
20260507102559 39 335 0.0 0.0 0.00 0.00 0.00 84 1015.6
20260507102059 39 335 0.0 0.0 0.00 0.00 0.00 86 1015.6
20260507101605 40 335 0.0 0.0 0.00 0.00 0.00 86 1015.6
20260507101058 40 335 0.0 0.0 0.00 0.00 0.00 85 1015.6
20260507100556 40 335 0.0 0.0 0.00 0.00 0.00 85 1015.4
20260507100057 40 335 0.0 0.0 0.00 0.00 0.00 86 1015.4
20260507095556 40 335 0.0 0.0 0.00 0.00 0.00 84 1015.2
20260507095056 41 335 0.0 0.0 0.00 0.00 0.00 82 1015.2
20260507094555 41 335 0.0 0.0 0.00 0.00 0.00 82 1015.3
20260507094056 42 335 0.0 0.0 0.00 0.00 0.00 80 1015.3
20260507093554 42 335 0.0 0.0 0.00 0.00 0.00 79 1015.4
20260507093058 42 335 0.0 0.0 0.00 0.00 0.00 77 1015.3
20260507092556 42 335 0.0 0.0 0.00 0.00 0.00 79 1015.4
20260507092053 42 338 0.0 0.0 0.00 0.00 0.00 80 1015.3
20260507091557 41 338 0.0 0.0 0.00 0.00 0.00 83 1015.3
20260507091053 41 338 0.0 0.0 0.00 0.00 0.00 85 1015.5
20260507090552 41 338 0.0 0.0 0.00 0.00 0.00 85 1015.5
20260507090056 41 338 0.0 0.0 0.00 0.00 0.00 84 1015.5
20260507085551 41 338 0.0 0.0 0.00 0.01 0.00 82 1015.5
20260507085051 42 338 0.0 0.0 0.00 0.01 0.00 80 1015.5
20260507084553 42 338 0.0 0.0 0.00 0.01 0.00 80 1015.5
20260507084050 43 338 0.0 0.0 0.00 0.01 0.00 80 1015.5
20260507083548 43 338 0.0 0.0 0.00 0.01 0.00 77 1015.4
20260507083048 43 338 0.0 0.0 0.00 0.01 0.00 79 1015.4
20260507082547 43 338 0.0 0.0 0.00 0.01 0.00 79 1015.4
20260507082051 43 338 0.0 0.0 0.00 0.01 0.00 79 1015.4
20260507081550 43 338 0.0 0.0 0.00 0.01 0.00 78 1015.3
20260507081047 43 338 0.0 0.0 0.00 0.01 0.00 78 1015.3
20260507080550 43 338 0.0 0.0 0.00 0.01 0.00 79 1015.2
20260507080049 43 338 0.0 0.0 0.00 0.01 0.00 80 1015.2
20260507075546 43 338 0.0 0.0 0.00 0.02 0.00 79 1015.2
20260507075046 43 338 0.0 0.0 0.00 0.02 0.00 78 1015.1
20260507074600 44 338 0.0 0.0 0.00 0.02 0.00 78 1015.0
20260507074045 44 338 0.0 0.0 0.00 0.02 0.00 77 1015.1
20260507073549 44 336 0.0 0.0 0.00 0.02 0.00 78 1015.1
20260507073045 44 336 0.0 0.0 0.00 0.02 0.00 77 1015.1
20260507072545 44 333 0.0 0.0 0.00 0.02 0.00 78 1015.2
20260507072044 44 333 0.0 0.0 0.00 0.02 0.00 78 1015.0
20260507071544 44 333 0.0 0.0 0.00 0.02 0.00 80 1015.1
20260507071044 44 351 0.0 0.0 0.00 0.02 0.00 80 1015.2
20260507070543 44 350 0.0 1.0 0.00 0.02 0.00 80 1015.1
20260507070043 44 350 0.0 2.0 0.00 0.02 0.00 80 1015.2
20260507065542 44 306 0.0 2.0 0.00 0.07 0.00 82 1015.1
20260507065042 44 11 0.0 0.0 0.00 0.07 0.00 82 1015.2
20260507064541 44 12 0.0 0.0 0.00 0.07 0.00 82 1015.2
20260507064041 44 315 0.0 0.0 0.00 0.07 0.00 83 1015.3
20260507063540 44 315 0.0 0.0 0.00 0.07 0.00 84 1015.3
20260507063040 44 315 0.0 0.0 0.00 0.07 0.00 84 1015.1
20260507062540 44 315 0.0 0.0 0.00 0.07 0.00 86 1015.1
20260507062042 44 315 0.0 0.0 0.00 0.07 0.00 88 1015.1
20260507061539 43 315 0.0 0.0 0.00 0.07 0.00 89 1015.1
20260507061038 43 315 0.0 0.0 0.00 0.07 0.00 90 1015.1
20260507060538 43 315 0.0 0.0 0.00 0.07 0.00 91 1015.3
20260507060043 43 315 0.0 0.0 0.00 0.07 0.00 91 1015.2
20260507055538 43 315 0.0 0.0 0.00 0.11 0.00 91 1015.2
20260507055040 43 315 0.0 0.0 0.00 0.11 0.00 91 1015.3
20260507054547 43 315 0.0 0.0 0.00 0.11 0.00 91 1015.3
20260507054036 43 315 0.0 0.0 0.00 0.11 0.00 90 1015.3
20260507053535 43 315 0.0 0.0 0.00 0.11 0.00 90 1015.3
20260507053035 43 315 0.0 0.0 0.00 0.11 0.00 90 1015.2
20260507052533 43 315 0.0 0.0 0.00 0.11 0.00 90 1015.2
20260507052033 43 315 0.0 0.0 0.00 0.11 0.00 89 1015.2
20260507051534 44 315 0.0 0.0 0.00 0.11 0.00 90 1015.2
20260507051034 44 315 0.0 0.0 0.00 0.11 0.00 90 1015.1
20260507050532 44 315 0.0 0.0 0.00 0.11 0.00 91 1015.0
20260507050032 44 315 0.0 0.0 0.00 0.11 0.00 92 1015.0
20260507045532 44 315 0.0 0.0 0.00 0.21 0.00 92 1015.0
20260507045033 44 315 0.0 0.0 0.00 0.21 0.00 92 1015.0
20260507044533 44 315 0.0 0.0 0.00 0.21 0.00 92 1015.0
20260507044030 44 315 0.0 0.0 0.00 0.21 0.00 91 1015.1
20260507043530 44 315 0.0 0.0 0.00 0.21 0.00 91 1015.2
20260507043032 44 315 0.0 0.0 0.00 0.21 0.00 91 1015.0
20260507042529 44 315 0.0 0.0 0.00 0.21 0.00 91 1015.1
20260507042029 44 315 0.0 0.0 0.00 0.21 0.00 90 1015.1
20260507041529 44 315 0.0 0.0 0.00 0.21 0.00 90 1015.1
20260507041028 44 315 0.0 0.0 0.00 0.21 0.00 89 1015.1
20260507040527 44 315 0.0 0.0 0.00 0.21 0.00 89 1015.1
20260507040027 45 315 0.0 0.0 0.00 0.48 0.21 89 1015.1
20260507035525 45 315 0.0 0.0 0.00 0.48 0.21 89 1015.0
20260507035026 45 315 0.0 0.0 0.00 0.48 0.21 89 1015.0
20260507034526 45 315 0.0 0.0 0.00 0.48 0.21 89 1015.0
20260507034026 45 315 0.0 0.0 0.00 0.48 0.21 89 1015.1
20260507033525 45 315 0.0 0.0 0.00 0.48 0.21 89 1015.0
20260507033025 45 315 0.0 0.0 0.00 0.48 0.21 89 1015.1
20260507032524 45 315 0.0 0.0 0.00 0.48 0.21 89 1015.0
20260507032025 45 315 0.0 0.0 0.00 0.48 0.21 89 1015.1
20260507031524 45 315 0.0 0.0 0.00 0.48 0.21 89 1015.1
20260507031027 46 315 0.0 0.0 0.00 0.48 0.21 89 1015.0
20260507030523 46 315 0.0 0.0 0.00 0.48 0.21 89 1015.0
20260507030023 46 315 0.0 0.0 0.00 0.73 0.21 88 1015.0
20260507025522 46 315 0.0 0.0 0.00 0.73 0.21 88 1014.9
20260507025022 46 315 0.0 0.0 0.00 0.73 0.21 87 1014.9
20260507024524 46 315 0.0 0.0 0.00 0.73 0.21 86 1014.9
20260507024025 46 315 0.0 0.0 0.00 0.73 0.21 86 1014.7
20260507023521 47 315 0.0 0.0 0.00 0.73 0.21 86 1014.7
20260507023021 47 315 0.0 0.0 0.00 0.73 0.21 85 1014.7
20260507022521 47 315 0.0 0.0 0.00 0.73 0.21 85 1014.7
20260507022022 47 315 0.0 0.0 0.00 0.73 0.21 84 1014.5
20260507021522 47 315 0.0 0.0 0.00 0.73 0.21 82 1014.7
20260507021020 48 315 0.0 0.0 0.00 0.73 0.21 80 1014.6
20260507020519 48 315 0.0 0.0 0.00 0.73 0.21 78 1014.5
20260507020019 48 315 0.0 0.0 0.00 0.83 0.21 77 1014.6
20260507015518 48 315 0.0 0.0 0.00 0.83 0.21 76 1014.4
20260507015018 49 315 0.0 0.0 0.00 0.83 0.21 77 1014.4
20260507014526 49 315 0.0 0.0 0.00 0.83 0.21 76 1014.4
20260507014017 49 315 0.0 0.0 0.00 0.83 0.21 76 1014.4
20260507013516 49 315 0.0 0.0 0.00 0.83 0.21 76 1014.3
20260507013017 50 315 0.0 0.0 0.00 0.83 0.21 76 1014.3
20260507012516 50 315 0.0 0.0 0.00 0.83 0.21 75 1014.3
20260507012019 50 315 0.0 0.0 0.00 0.83 0.21 74 1014.2
20260507011516 51 315 0.0 0.0 0.00 0.83 0.21 72 1014.2
20260507011015 51 315 0.0 0.0 0.00 0.83 0.21 71 1014.1
20260507010514 51 315 0.0 0.0 0.00 0.83 0.21 71 1014.0
20260507010014 52 315 0.0 0.0 0.00 0.94 0.21 68 1014.0
20260507005514 52 315 0.0 0.0 0.00 0.94 0.21 67 1013.9
20260507005017 53 315 0.0 0.0 0.00 0.94 0.21 64 1014.0
20260507004517 54 315 0.0 0.0 0.00 0.94 0.21 61 1013.9
20260507004018 54 315 0.0 0.0 0.00 0.94 0.21 61 1014.0
20260507003513 55 315 0.0 2.0 0.00 0.94 0.21 59 1014.0
20260507003013 55 315 0.0 2.0 0.00 0.94 0.21 57 1014.0
20260507002512 56 325 0.0 2.0 0.00 0.94 0.21 55 1014.0
20260507002013 56 321 0.0 2.0 0.00 0.94 0.21 55 1013.9
20260507001516 56 321 0.0 3.0 0.00 0.94 0.21 54 1014.0
20260507001017 57 343 0.0 3.0 0.00 0.94 0.21 53 1013.9
20260507000511 57 305 0.0 2.0 0.00 0.94 0.21 53 1013.7
20260507000011 57 315 0.0 2.0 0.00 1.06 0.21 52 1013.8
20260506235511 58 320 0.0 2.0 0.00 1.06 0.21 51 1013.6
20260506235010 58 328 0.0 2.0 0.00 1.06 0.21 51 1013.5
20260506234514 58 321 0.0 2.0 0.00 1.06 0.21 51 1013.5
20260506234011 58 311 0.0 2.0 0.00 1.06 0.21 52 1013.5
20260506233510 57 198 0.0 2.0 0.00 1.06 0.21 54 1013.4
20260506233010 57 327 0.0 3.0 0.00 1.06 0.21 56 1013.5
20260506232509 57 249 0.0 3.0 0.00 1.06 0.21 55 1013.5
20260506232010 57 310 0.0 2.0 0.00 1.06 0.21 56 1013.5
20260506231510 57 321 0.0 2.0 0.00 1.06 0.21 55 1013.4
20260506231011 57 338 0.0 2.0 0.00 1.06 0.21 56 1013.5
20260506230508 58 320 0.0 2.0 0.00 1.06 0.21 54 1013.5
20260506230008 58 31 0.0 4.0 0.00 1.41 0.21 55 1013.4
20260506225510 58 302 0.0 4.0 0.00 1.41 0.21 52 1013.4
20260506225008 58 31 0.0 3.0 0.00 1.41 0.21 56 1013.3
20260506224508 58 303 0.0 4.0 0.00 1.41 0.21 50 1013.3
20260506224008 58 317 0.0 4.0 0.00 1.41 0.21 50 1013.3
20260506223508 58 311 0.0 4.0 0.00 1.41 0.21 52 1013.3
20260506223008 58 351 0.0 4.0 0.00 1.41 0.21 50 1013.6
20260506222508 58 9 1.0 4.0 0.00 1.41 0.21 49 1013.5
20260506222008 58 288 0.0 4.0 0.00 1.41 0.21 49 1013.5
20260506221507 58 324 1.0 4.0 0.00 1.41 0.21 48 1013.5
20260506221012 58 325 0.0 3.0 0.00 1.41 0.21 52 1013.4
20260506220508 58 355 0.0 3.0 0.00 1.41 0.21 47 1013.4
20260506220016 59 11 1.0 3.0 0.00 1.48 0.21 48 1013.5
20260506215511 59 328 0.0 2.0 0.00 1.48 0.21 48 1013.5
20260506215006 59 311 0.0 2.0 0.00 1.48 0.21 48 1013.5
20260506214507 59 286 0.0 2.0 0.00 1.48 0.21 51 1013.5
20260506214007 59 329 0.0 2.0 0.00 1.48 0.21 50 1013.5
20260506213506 59 314 0.0 2.0 0.00 1.48 0.21 49 1013.3
20260506213006 58 308 0.0 3.0 0.00 1.48 0.21 48 1013.6
20260506212506 59 282 0.0 3.0 0.00 1.48 0.21 50 1013.5
20260506212006 59 351 0.0 2.0 0.00 1.48 0.21 48 1013.4
20260506211508 59 326 0.0 4.0 0.00 1.48 0.21 48 1013.5
20260506211005 59 271 0.0 4.0 0.00 1.48 0.21 48 1013.4
20260506210505 59 339 0.0 2.0 0.00 1.48 0.21 52 1013.3
20260506210009 59 317 0.0 4.0 0.00 1.48 0.21 45 1013.3
20260506205504 59 338 0.0 4.0 0.00 1.48 0.21 46 1013.3
20260506205004 59 350 0.0 3.0 0.00 1.48 0.21 46 1013.2
20260506204504 59 275 0.0 2.0 0.00 1.48 0.21 47 1013.3
20260506204002 59 17 0.0 2.0 0.00 1.48 0.21 48 1013.3
20260506203501 59 300 0.0 2.0 0.00 1.48 0.21 49 1013.3
20260506203002 58 295 0.0 3.0 0.00 1.48 0.21 52 1013.4
20260506202502 59 331 0.0 3.0 0.00 1.48 0.21 55 1013.3
20260506202002 59 297 0.0 3.0 0.00 1.48 0.21 51 1013.3
20260506201600 58 229 0.0 2.0 0.00 1.48 0.21 50 1013.2
20260506201100 58 311 0.0 3.0 0.00 1.48 0.21 51 1013.3
20260506200600 58 336 0.0 3.0 0.00 1.48 0.21 49 1013.5
20260506200059 58 335 0.0 3.0 0.00 1.48 0.21 54 1013.4
20260506195558 58 355 1.0 3.0 0.00 1.49 0.21 50 1013.4
20260506195058 58 336 0.0 3.0 0.00 1.49 0.21 48 1013.4
20260506194633 58 276 0.0 2.0 0.00 1.49 0.21 57 1013.5
20260506194101 57 349 0.0 2.0 0.00 1.49 0.21 53 1013.5
20260506193557 57 346 0.0 2.0 0.00 1.49 0.21 54 1013.4
20260506193105 57 350 0.0 3.0 0.00 1.49 0.21 52 1013.5
20260506192556 57 346 1.0 3.0 0.00 1.49 0.21 50 1013.4
20260506192058 57 140 0.0 3.0 0.00 1.49 0.21 53 1013.3
20260506191556 57 360 0.0 4.0 0.00 1.49 0.21 51 1013.5
20260506191055 57 309 0.0 3.0 0.00 1.49 0.21 53 1013.4
20260506190554 58 9 0.0 3.0 0.00 1.49 0.21 58 1013.5
20260506190057 57 257 0.0 2.0 0.00 1.49 0.21 57 1013.5
20260506185553 57 5 0.0 2.0 0.00 1.52 0.21 57 1013.4
20260506185052 57 276 0.0 1.0 0.00 1.52 0.21 57 1013.3
20260506184552 57 143 0.0 1.0 0.00 1.52 0.21 68 1013.4
20260506184051 57 77 0.0 2.0 0.00 1.52 0.21 60 1013.4
20260506183551 56 78 0.0 2.0 0.00 1.52 0.21 59 1013.5
20260506183051 56 14 0.0 3.0 0.00 1.52 0.21 60 1013.3
20260506182551 56 329 0.0 3.0 0.00 1.52 0.21 58 1013.2
20260506182050 56 311 0.0 2.0 0.00 1.52 0.21 58 1013.1
20260506181550 56 331 0.0 2.0 0.00 1.52 0.21 63 1013.2
20260506181050 56 197 0.0 2.0 0.00 1.52 0.21 58 1013.2
20260506180551 56 282 0.0 2.0 0.00 1.52 0.21 60 1013.3
20260506180100 56 338 0.0 2.0 0.00 1.52 0.21 59 1013.5
20260506175550 56 327 0.0 2.0 0.00 1.64 0.21 57 1013.4
20260506175047 56 342 0.0 2.0 0.00 1.64 0.21 59 1013.5
20260506174547 55 339 0.0 2.0 0.00 1.64 0.21 58 1013.5
20260506174048 55 335 0.0 2.0 0.00 1.64 0.21 60 1013.6
20260506173547 56 305 0.0 3.0 0.00 1.64 0.21 60 1013.7
20260506173046 56 360 0.0 2.0 0.00 1.64 0.21 59 1013.7
20260506172546 55 339 0.0 2.0 0.00 1.64 0.21 60 1013.7
20260506172145 56 318 0.0 2.0 0.00 1.64 0.21 64 1013.8
20260506171549 55 318 0.0 3.0 0.00 1.64 0.21 61 1013.9
20260506171047 55 89 0.0 3.0 0.00 1.64 0.21 60 1013.9
20260506170545 55 92 0.0 3.0 0.00 1.64 0.21 60 1013.9
20260506170057 55 167 0.0 2.0 0.00 1.64 0.21 60 1013.9
20260506165543 55 22 0.0 2.0 0.00 1.64 0.21 64 1013.9
20260506165042 55 339 0.0 2.0 0.00 1.64 0.21 65 1014.0
20260506164542 55 82 0.0 1.0 0.00 1.64 0.21 65 1013.9
20260506164045 55 329 0.0 2.0 0.00 1.64 0.21 69 1013.9
20260506163544 55 338 0.0 4.0 0.00 1.64 0.21 68 1013.9
20260506163057 54 325 0.0 4.0 0.00 1.64 0.21 63 1013.8
20260506162542 55 350 1.0 4.0 0.00 1.64 0.21 64 1013.7
20260506162041 54 355 0.0 2.0 0.00 1.64 0.21 65 1013.6
20260506161537 54 89 0.0 2.0 0.00 1.64 0.21 71 1013.6
20260506161040 54 72 0.0 2.0 0.00 1.64 0.21 73 1013.6
20260506160536 54 83 0.0 2.0 0.00 1.64 0.21 71 1013.7
20260506160036 54 203 0.0 2.0 0.00 1.64 0.21 68 1013.7
20260506155534 54 259 0.0 2.0 0.00 1.64 0.21 72 1013.6
20260506155033 53 80 0.0 2.0 0.00 1.64 0.21 76 1013.6
20260506154537 53 300 0.0 2.0 0.00 1.64 0.21 77 1013.7
20260506154033 52 290 0.0 3.0 0.00 1.64 0.21 77 1013.5
20260506153531 52 340 0.0 3.0 0.00 1.64 0.21 76 1013.6
20260506153031 52 307 0.0 2.0 0.00 1.64 0.21 76 1013.4
20260506152530 52 355 0.0 0.0 0.00 1.64 0.21 77 1013.4
20260506152030 52 326 0.0 2.0 0.00 1.64 0.21 75 1013.6
20260506151530 52 313 0.0 2.0 0.00 1.64 0.21 76 1013.6
20260506151030 52 319 0.0 2.0 0.00 1.64 0.21 80 1013.8
20260506150528 51 316 0.0 2.0 0.00 1.64 0.21 74 1013.7
20260506150028 51 340 0.0 2.0 0.00 1.64 0.21 74 1013.7
20260506145529 51 300 0.0 2.0 0.00 1.64 0.21 74 1013.7
20260506145024 51 313 0.0 2.0 0.00 1.64 0.21 76 1013.7
20260506144525 51 355 0.0 2.0 0.00 1.64 0.21 77 1013.7
20260506144022 50 319 0.0 2.0 0.00 1.64 0.21 78 1013.4
20260506143524 50 309 0.0 2.0 0.00 1.64 0.21 79 1013.1
20260506143020 50 55 0.0 2.0 0.00 1.64 0.21 79 1013.1
20260506142519 50 324 0.0 2.0 0.00 1.64 0.21 78 1013.2
20260506142019 50 323 0.0 2.0 0.00 1.64 0.21 79 1013.1
20260506141518 50 343 0.0 2.0 0.00 1.64 0.21 80 1013.2
20260506141017 50 337 0.0 2.0 0.00 1.64 0.21 80 1013.1
20260506140518 49 355 0.0 2.0 0.00 1.64 0.21 81 1012.9
20260506140014 49 331 0.0 2.0 0.00 1.64 0.21 80 1012.5
20260506135513 49 348 0.0 2.0 0.00 1.64 0.21 79 1012.5
20260506135013 49 328 0.0 2.0 0.00 1.64 0.21 80 1012.5
20260506134513 49 331 0.0 2.0 0.00 1.64 0.21 80 1012.3
20260506134013 49 5 0.0 2.0 0.00 1.64 0.21 82 1012.2
20260506133513 49 74 0.0 2.0 0.00 1.64 0.21 83 1012.1
20260506133009 48 5 0.0 2.0 0.00 1.64 0.21 83 1012.1
20260506132508 48 30 0.0 2.0 0.00 1.64 0.21 83 1012.3
20260506132007 48 336 0.0 2.0 0.00 1.64 0.21 84 1012.3
20260506131513 48 336 0.0 2.0 0.00 1.64 0.21 86 1012.5
20260506131007 47 313 0.0 2.0 0.00 1.64 0.21 85 1012.6
20260506130509 48 300 0.0 2.0 0.00 1.64 0.21 89 1012.5
20260506130006 47 327 0.0 2.0 0.00 1.64 0.21 89 1012.5
20260506125505 47 336 0.0 2.0 0.00 1.64 0.21 89 1012.6
20260506125003 47 336 0.0 0.0 0.00 1.64 0.21 90 1012.5
20260506124504 47 327 0.0 1.0 0.00 1.64 0.21 91 1012.5
20260506124003 46 327 0.0 1.0 0.00 1.64 0.21 91 1012.4
20260506123504 46 311 0.0 0.0 0.00 1.64 0.21 91 1012.7
20260506123002 46 317 0.0 1.0 0.00 1.64 0.21 92 1012.4
20260506122601 46 317 0.0 1.0 0.00 1.64 0.21 91 1012.4
20260506122100 46 311 0.0 1.0 0.00 1.64 0.21 92 1012.5
20260506121559 46 308 0.0 0.0 0.00 1.64 0.21 92 1012.5
20260506121058 46 308 0.0 0.0 0.00 1.64 0.21 92 1012.5
20260506120557 46 307 0.0 0.0 0.00 1.64 0.21 92 1012.2
20260506120100 46 307 0.0 2.0 0.00 1.64 0.21 92 1012.1